Location: Unspecified
(0.0000°N, 0.0000°E)
Time: 07:07:02
(UTC+00:00)

Vanguard 1 - Pass Details

Date: 13 December 2018
Orbit: 654 x 3829 km, 34.2° (Epoch: 16 June)

Event Time Altitude Azimuth Distance (km) Brightness Sun altitude
Rises 23:17:05 0° 218° (SW) 6,540 14.6 -65.1°
Reaches altitude 10° 23:25:14 10° 196° (SSW) 4,685 13.7 -65.7°
Enters shadow 23:29:29 13° 176° (S) 3,912 13.3 -66.0°
